Location: *
(46.3500°N, 10.9000°E)
Time: 21:25:04
(UTC+00:00)

Explorer 7 - Pass Details

Date: 23 April 2021
Orbit: 484 x 677 km, 50.3° (Epoch: 05 May)

Event Time Altitude Azimuth Distance (km) Brightness Sun altitude
Rises 19:07:15 0° 253° (WSW) 2,615 11.0 -9.0°
Reaches altitude 10° 19:09:24 10° 255° (WSW) 1,756 10.1 -9.4°
Maximum altitude 19:13:23 73° 340° (NNW) 573 7.0 -10.0°
Drops below altitude 10° 19:17:39 10° 66° (ENE) 1,875 9.2 -10.6°
Enters shadow 19:19:34 - 68° (ENE) 2,640 9.9 -10.9°
Sets 19:20:00 0° 69° (ENE) 2,811 - -10.9°
